This demonstration page uses our WeatherBlox Daily Observations layout. Learn more.

Left ArrowRight Arrow

40.92945, -100.16068

Hourly Observations for May 26, 2020

Temp ( °F °C ) Dew Point ( °F °C ) Humidity (%) Winds ( mph kmh ) Pressure ( in mb ) Visibility ( mi km ) Precip ( " mm )
12:15 am 00:15 Clear 46 7.6 45 7 96 96 NNW 6 9 30.03 1017 10 16.0934 0 0
12:35 am 00:35 Clear 46 7.7 45 7.2 97 97 NW 7 11 30.04 1017 10 16.0934 0 0
12:55 am 00:55 Clear 46 8 46 7.5 97 97 NW 5 7 30.03 1017 10 16.0934 0 0
1:15 am 01:15 Clear 46 7.6 45 7.2 97 97 WNW 6 9 30.03 1017 10 16.0934 0 0
1:35 am 01:35 Clear 46 7.8 46 7.5 98 98 WNW 6 9 30.02 1017 10 16.0934 0 0
1:55 am 01:55 Clear 46 8 45 7.3 95 95 WNW 6 9 30.02 1017 10 16.0934 0 0
2:15 am 02:15 Clear 46 7.7 45 7.3 97 97 WNW 7 11 30.01 1016 10 16.0934 0 0
2:35 am 02:35 Clear 46 7.5 45 7 97 97 WNW 6 9 30.01 1016 10 16.0934 0 0
2:55 am 02:55 Clear 45 7.3 44 6.8 97 97 WNW 6 9 30.01 1016 10 16.0934 0 0
3:15 am 03:15 Clear 46 7.5 45 7 97 97 WNW 6 9 30 1016 10 16.0934 0 0
3:35 am 03:35 Clear 45 7.2 44 6.7 97 97 WNW 6 9 30.01 1016 10 16.0934 0 0
3:55 am 03:55 Clear 46 7.6 45 7.1 97 97 WNW 7 11 29.99 1016 10 16.0934 0 0
4:15 am 04:15 Clear 46 7.5 45 7 97 97 WNW 8 13 29.99 1016 10 16.0934 0 0
4:35 am 04:35 Clear 46 7.6 45 7 96 96 WNW 8 13 29.99 1016 10 16.0934 0 0
4:55 am 04:55 Clear 46 7.6 45 7 96 96 WNW 8 13 29.99 1016 10 16.0934 0 0
5:15 am 05:15 Clear 45 7.3 44 6.7 96 96 WNW 6 9 30 1016 10 16.0934 0 0
5:35 am 05:35 Clear 45 7.2 44 6.5 95 95 WNW 7 11 30 1016 10 16.0934 0 0
5:55 am 05:55 Clear 45 7 43 6.3 95 95 WNW 5 7 30 1016 10 16.0934 0 0
6:15 am 06:15 Sunny 44 6.8 43 6.2 96 96 WNW 6 9 30 1016 10 16.0934 0 0
6:35 am 06:35 Sunny 44 6.8 43 6.2 96 96 WNW 6 9 30 1016 10 16.0934 0 0
6:55 am 06:55 Sunny 45 7.1 44 6.5 96 96 WNW 6 9 30 1016 10 16.0934 0 0
7:15 am 07:15 Sunny 46 7.8 45 7 95 95 W 7 11 30 1016 10 16.0934 0 0
7:35 am 07:35 Sunny 47 8.2 45 7.3 94 94 WNW 6 9 30 1016 10 16.0934 0 0
7:55 am 07:55 Sunny 47 8.6 46 7.5 93 93 WNW 7 11 29.99 1016 10 16.0934 0 0
8:15 am 08:15 Sunny 48 9 46 7.7 92 92 WNW 8 13 30 1016 10 16.0934 0 0
8:35 am 08:35 Sunny 49 9.5 47 8.4 93 93 WNW 9 15 29.99 1015 10 16.0934 0 0
8:55 am 08:55 Sunny 50 10.1 48 8.7 91 91 WNW 8 13 29.98 1015 10 16.0934 0 0
9:15 am 09:15 Sunny 52 11.3 49 9.6 89 89 WNW 12 19 29.97 1015 10 16.0934 0 0
9:35 am 09:35 Sunny 55 12.9 51 10.3 84 84 WNW 13 20 29.95 1014 10 16.0934 0 0
9:55 am 09:55 Sunny 57 13.9 51 10.7 81 81 NW 12 19 29.94 1014 10 16.0934 0 0
10:15 am 10:15 Sunny 60 15.7 52 11.2 75 75 NW 10 17 29.92 1013 10 16.0934 0 0
10:35 am 10:35 Sunny 62 16.7 52 11.3 71 71 NW 12 19 29.91 1013 10 16.0934 0 0
10:55 am 10:55 Sunny 64 17.7 53 11.6 68 68 NNW 9 15 29.89 1012 10 16.0934 0 0
11:15 am 11:15 Sunny 65 18.4 51 10.8 61 61 NNW 12 19 29.88 1012 10 16.0934 0 0
11:35 am 11:35 Sunny 65 18.5 50 10 58 58 NNW 16 26 29.87 1011 10 16.0934 0 0
11:55 am 11:55 Sunny 67 19.3 50 10.1 55 55 N 17 28 29.85 1011 10 16.0934 0 0
12:15 pm 12:15 Sunny 67 19.5 50 10 54 54 NNW 18 30 29.85 1011 10 16.0934 0 0
12:35 pm 12:35 Sunny 68 19.8 52 11 57 57 NNW 14 22 29.83 1010 10 16.0934 0 0
12:55 pm 12:55 Sunny 67 19.7 51 10.4 55 55 NNW 13 20 29.83 1010 10 16.0934 0 0
1:15 pm 13:15 Sunny 68 20.2 51 10.4 53 53 N 12 19 29.83 1010 10 16.0934 0 0
1:35 pm 13:35 Sunny 69 20.7 51 10.6 53 53 N 14 22 29.83 1010 10 16.0934 0 0
1:55 pm 13:55 Sunny 70 21 51 10.6 52 52 N 14 22 29.82 1010 10 16.0934 0 0
2:15 pm 14:15 Sunny 70 21.1 51 10.5 51 51 NNW 12 19 29.82 1010 10 16.0934 0 0
2:35 pm 14:35 Sunny 70 21.2 50 10.2 50 50 N 13 20 29.82 1010 10 16.0934 0 0
2:55 pm 14:55 Sunny 71 21.5 50 10 48 48 NNE 10 17 29.81 1009 10 16.0934 0 0
3:15 pm 15:15 Partly Cloudy 71 21.6 51 10.3 49 49 N 10 17 29.81 1009 10 16.0934 0 0
3:35 pm 15:35 Partly Cloudy 71 21.9 52 10.9 50 50 N 10 17 29.8 1009 10 16.0934 0 0
3:55 pm 15:55 Sunny 71 21.7 50 10.1 48 48 N 13 20 29.8 1009 10 16.0934 0 0
4:15 pm 16:15 Sunny 72 22.1 51 10.7 49 49 N 13 20 29.79 1009 10 16.0934 0 0
4:35 pm 16:35 Sunny 72 22.2 50 10 46 46 N 10 17 29.78 1009 10 16.0934 0 0
4:55 pm 16:55 Sunny 72 22 50 9.9 46 46 N 16 26 29.79 1009 10 16.0934 0 0
5:15 pm 17:15 Sunny 73 22.5 50 10 45 45 N 12 19 29.78 1009 10 16.0934 0 0
5:35 pm 17:35 Sunny 72 22 49 9.7 46 46 N 12 19 29.79 1009 10 16.0934 0 0
5:55 pm 17:55 Sunny 72 22.1 49 9.7 45 45 N 8 13 29.78 1009 10 16.0934 0 0
6:15 pm 18:15 Sunny 72 22 49 9.3 44 44 N 10 17 29.79 1009 10 16.0934 0 0
6:35 pm 18:35 Sunny 71 21.8 49 9.3 45 45 N 10 17 29.79 1009 10 16.0934 0 0
6:55 pm 18:55 Sunny 71 21.6 48 8.7 44 44 N 6 9 29.79 1009 10 16.0934 0 0
7:15 pm 19:15 Sunny 70 21.3 48 9.1 46 46 N 12 19 29.79 1009 10 16.0934 0 0
7:35 pm 19:35 Sunny 69 20.6 49 9.3 48 48 NNE 8 13 29.8 1009 10 16.0934 0 0
7:55 pm 19:55 Sunny 68 20 49 9.5 51 51 NNE 8 13 29.81 1010 10 16.0934 0 0
8:15 pm 20:15 Sunny 65 18.5 51 10.5 60 60 NE 6 9 29.83 1010 10 16.0934 0 0
8:35 pm 20:35 Sunny 63 17 51 10.8 67 67 NE 6 9 29.85 1011 10 16.0934 0 0
8:55 pm 20:55 Sunny 62 16.6 51 10.4 67 67 NE 6 9 29.85 1011 10 16.0934 0 0
9:15 pm 21:15 Clear 60 15.6 50 10 70 70 NE 6 9 29.86 1011 10 16.0934 0 0
9:35 pm 21:35 Clear 59 15 50 10 72 72 NE 3 6 29.87 1011 10 16.0934 0 0
9:55 pm 21:55 Clear 57 14 51 10.6 80 80 NE 3 6 29.88 1012 10 16.0934 0 0
10:15 pm 22:15 Clear 57 13.8 51 10.6 81 81 NE 3 6 29.9 1012 10 16.0934 0 0
10:35 pm 22:35 Clear 56 13.6 51 10.5 82 82 NE 3 6 29.91 1013 10 16.0934 0 0
10:55 pm 22:55 Clear 55 13 52 11.1 88 88 Calm 29.92 1013 10 16.0934 0 0
11:15 pm 23:15 Clear 56 13.4 53 11.4 88 88 Calm 29.92 1013 10 16.0934 0 0
11:35 pm 23:35 Clear 55 13 51 10.8 87 87 Calm 29.92 1013 10 16.0934 0 0
11:55 pm 23:55 Clear 57 13.8 51 10.4 80 80 Calm 29.92 1013 10 16.0934 0 0

Powered by AerisWeather